Home   Weather   South Bend   Past weeks

Flag for USA Past Weather in South Bend, Indiana, USA — Yesterday and Last 2 Weeks

Now
43 °F

Light rain. Overcast.


Feels Like: 36 °F
Forecast: 44 / 68 °F
Wind: 15 mph from East

Location: Michiana Regional Airport

Current Time: Apr 30, 2017 at 2:57:44 am

Latest Report: Apr 30, 2017 at 1:54 am


Visibility: 10 mi

Pressure: 29.97 "Hg

Humidity: 89%

Dew Point: 40 °F

Location of South BendLocation

Past Weather in South Bend — Graph

°F

South Bend Temperature Yesterday

Maximum temperature yesterday: 53 °F (at 12:54 am)
Minimum temperature yesterday: 45 °F (at 11:54 pm)
Average temperature yesterday: 50 °F

High & Low Weather Summary for the Past Weeks

 TemperatureHumidityPressure
High82 °F (Apr 26, 2:54 pm)100% (Apr 15, 1:54 am)30.25 "Hg (Apr 15, 1:54 am)
Low31 °F (Apr 23, 5:54 am)20% (Apr 24, 2:54 pm)29.37 "Hg (Apr 27, 7:54 am)
Average57 °F68%29.95 "Hg
* Reported Apr 15 1:54 am — Apr 30 1:31 am, South Bend, Weather by CustomWeather, © 2017

Note: Actual official high and low records may vary slightly from our data, if they occured in-between our weather recording intervals... More about our weather records

Advertising

South Bend Weather History for the Previous 24 Hours

Scroll right to see more
 ConditionsComfort  
Time TempWeatherWind HumidityBarometerVisibility
1:31 am
Sun, Apr 30
44 °FPassing clouds.17 mph85%29.96 "Hg10 mi
12:54 am44 °FOvercast.20 mph89%29.98 "Hg10 mi
12:08 am44 °FLight rain. Partly cloudy.21 mph93%29.96 "Hg10 mi
11:54 pm
Sat, Apr 29
45 °FThundershowers. Overcast.25 mph86%29.98 "Hg10 mi
11:33 pm46 °FThundershowers. Fog.25 mph86%30.00 "Hg6 mi
11:19 pm46 °FThunderstorms. Fog.26 mph86%29.99 "Hg2 mi
11:01 pm47 °FThunderstorms. Overcast.20 mph80%29.99 "Hg8 mi
10:29 pm50 °FThunderstorms. Overcast.14 mph74%30.02 "Hg10 mi
10:08 pm49 °FOvercast.10 mph80%30.02 "Hg10 mi
9:37 pm50 °FThundershowers. Overcast.12 mph77%30.04 "Hg10 mi
9:22 pm50 °FThunderstorms. Overcast.15 mph77%30.05 "Hg10 mi
8:54 pm51 °FOvercast.12 mph77%30.07 "Hg10 mi
7:54 pm51 °FOvercast.12 mph77%30.09 "Hg10 mi
6:54 pm51 °FOvercast.13 mph80%30.10 "Hg10 mi
5:54 pm51 °FMostly cloudy.9 mph83%30.11 "Hg10 mi
4:54 pm51 °FMostly cloudy.7 mph86%30.13 "Hg10 mi
3:54 pm52 °FOvercast.8 mph80%30.15 "Hg10 mi
3:32 pm51 °FLight rain. Mostly cloudy.12 mph83%30.11 "Hg10 mi
2:54 pm52 °FOvercast.15 mph80%30.13 "Hg10 mi
1:54 pm51 °FLight rain. Mostly cloudy.8 mph86%30.16 "Hg8 mi
12:54 pm52 °FLight rain. Mostly cloudy.10 mph80%30.18 "Hg9 mi
11:54 am52 °FOvercast.8 mph75%30.15 "Hg10 mi
10:54 am51 °FOvercast.9 mph77%30.11 "Hg10 mi
9:54 am50 °FPassing clouds.10 mph77%30.11 "Hg10 mi
8:54 am48 °FScattered clouds.13 mph80%30.12 "Hg10 mi
7:54 am48 °FPartly sunny.13 mph77%30.10 "Hg10 mi
6:54 am49 °FOvercast.7 mph74%30.09 "Hg10 mi
5:54 am50 °FPassing clouds.9 mph80%30.02 "Hg10 mi
4:54 am51 °FOvercast.10 mph83%30.00 "Hg10 mi
4:15 am50 °FPassing clouds.10 mph86%29.98 "Hg10 mi
3:54 am50 °FOvercast.12 mph89%29.97 "Hg9 mi
3:41 am51 °FMostly cloudy.12 mph89%29.98 "Hg9 mi
2:54 am52 °FOvercast.3 mph86%29.99 "Hg10 mi
Weather by CustomWeather, © 2017

See weather overviewHow to use our weather pages